Location: Cactus School
(34.5700°N, 118.0931°W)
Time: 19:38:05
(UTC-07:00)

Tiros 1 - Visible Passes

Search period start: 21 April 2024 00:00
Search period end: 01 May 2024 00:00
Orbit: 625 x 657 km, 48.4° (Epoch: 21 April)

Date Brightness Start Highest point End Pass type
(mag) Time Alt. Az. Time Alt. Az. Time Alt. Az.
21 Apr 9.7 03:24:12 12° NNW 03:25:52 14° N 03:28:22 10° NNE visible
21 Apr 9.3 05:05:32 10° NNW 05:09:15 23° NNE 05:12:57 10° ENE visible
22 Apr 10.2 02:09:29 12° NNE 02:09:29 12° NNE 02:10:03 10° NNE visible
22 Apr 9.8 03:47:49 10° NNW 03:50:40 16° N 03:53:31 10° NE visible
22 Apr 8.5 05:29:23 10° NW 05:33:42 39° NNE 05:38:01 10° E visible
23 Apr 9.9 02:32:19 14° N 02:32:19 14° N 02:34:26 10° NNE visible
23 Apr 9.4 04:11:47 10° NNW 04:15:21 22° NNE 04:18:55 10° ENE visible
24 Apr 9.8 02:55:16 14° NNW 02:56:44 15° N 02:59:29 10° NE visible
24 Apr 8.7 04:35:37 10° NW 04:39:51 35° NNE 04:44:03 10° E visible
25 Apr 9.5 03:18:22 11° NNW 03:21:26 20° NNE 03:24:52 10° ENE visible
25 Apr 7.4 04:59:31 10° NW 05:04:06 70° NE 05:08:41 10° ESE visible
25 Apr 8.2 20:50:41 10° S 20:53:47 24° SSE 20:53:47 24° SSE visible
26 Apr 10.1 02:04:12 13° NNE 02:04:12 13° NNE 02:05:27 10° NE visible
26 Apr 8.8 03:41:49 10° NW 03:45:57 32° NNE 03:50:04 10° E visible
26 Apr 7.3 05:23:42 10° WNW 05:28:09 50° SW 05:32:34 10° SSE visible
26 Apr 7.0 21:13:48 10° SW 21:18:26 61° SE 21:20:04 37° ENE visible
26 Apr 9.7 22:56:39 10° W 22:57:49 16° WNW 22:57:49 16° WNW visible
27 Apr 9.7 02:28:06 19° NNE 02:28:06 19° NNE 02:30:47 10° ENE visible
27 Apr 7.5 04:05:43 10° NW 04:10:15 61° NE 04:14:47 10° ESE visible
27 Apr 8.4 19:57:09 10° S 20:00:45 22° SE 20:04:21 10° E visible
27 Apr 7.6 21:37:51 10° WSW 21:42:31 61° NW 21:45:57 18° NE visible
27 Apr 9.8 23:21:54 10° WNW 23:23:39 16° NW 23:23:39 16° NW visible
28 Apr 9.0 02:52:52 27° NE 02:52:52 27° NE 02:56:01 10° E visible
28 Apr 7.0 04:30:33 15° WNW 04:34:19 60° SW 04:38:49 10° SE visible
28 Apr 7.3 20:20:01 10° SSW 20:24:35 52° SE 20:29:09 10° ENE visible
28 Apr 8.8 22:02:34 10° W 22:06:48 32° NNW 22:10:56 10° NE visible
28 Apr 10.1 23:47:15 10° NW 23:48:34 14° NNW 23:48:34 14° NNW visible
29 Apr 8.7 03:18:33 28° E 03:18:33 28° E 03:20:51 10° ESE visible
29 Apr 8.1 04:56:17 19° W 04:58:10 25° SW 05:01:53 10° S visible
29 Apr 7.4 20:43:54 10° WSW 20:48:36 71° NW 20:53:18 10° NE visible
29 Apr 9.5 22:27:46 10° WNW 22:31:18 21° NNW 22:34:49 10° NNE visible
30 Apr 10.2 00:12:09 10° NNW 00:12:35 11° NNW 00:12:35 11° NNW visible
30 Apr 9.5 03:44:45 11° SE 03:44:45 11° SE 03:45:01 10° SE visible
30 Apr 8.7 21:08:29 10° W 21:12:50 36° NNW 21:17:10 10° NE visible
30 Apr 9.9 22:53:06 10° NW 22:55:58 16° N 22:58:27 11° NNE visible
